{"data":{"norad_id":62767,"intl_designator":"2025-015K","name":"STARLINK-33572","alt_names":[],"object_type":"PAYLOAD","status":"ACTIVE","operator":null,"country":"US","launch_date":"2025-01-21","launch_site_code":"AFWTR","launch_vehicle":null,"mission":null,"orbit_class":"UNKNOWN","rcs_meters":null,"size_class":null,"mass_kg":null,"dimensions":null,"purposes":["comms"],"wikipedia_slug":null,"has_3d_model":false,"image_url":null,"decayed_at":null,"tle_current":{"epoch":"2026-09-21T20:01:01.950240Z","epoch_age_seconds":56075,"freshness":"FRESH","line1":"1 62767U 25015K   26264.83405035  .00018169  00000+0  54755-3 0  9992","line2":"2 62767  53.1576 127.7033 0001146 112.3422 247.7702 15.34400532 94501","mean_motion":15.34400532,"eccentricity":0.0001146,"inclination_deg":53.1576,"raan_deg":127.7033,"arg_perigee_deg":112.3422,"mean_anomaly_deg":247.7702,"bstar":0.00054755,"rev_number":9450,"period_min":93.84772554289,"perigee_km":461.91769888113,"apogee_km":463.48561910177,"semimajor_km":6840.8386589914,"source":"CELESTRAK","updated_at":"2026-09-22T09:00:49.662253Z"}}}